Regional Weather Roundup
Issued by NWS

Current Version | Previous Version | Text Only | Print | Product List | Glossary On
Versions: 1 2 3 4 5 6 7 8 9 10 11 12 13 14 15 16 17 18 19 20 21 22 23 24 25 26 27 28 29 30 31 32 33 34 35 36 37 38 39 40 41 42 43 44 45 46 47 48 49 50
000
ASUS44 KLIX 221805
RWRLA
LOUISIANA WEATHER ROUNDUP
NATIONAL WEATHER SERVICE NEW ORLEANS LA
1200 PM CST MON DEC 22 2014

NOTE: "FAIR" INDICATES FEW OR NO CLOUDS BELOW 12,000 FEET WITH NO
      SIGNIFICANT WEATHER AND/OR OBSTRUCTIONS TO VISIBILITY.
      SKY/WX - SKY CONDITION AND SIGNIFICANT WEATHER.
      TMP - AIR TEMPERATURE.    DP   - DEWPOINT TEMPERATURE.
      RH  - RELATIVE HUMIDITY.  PRES - PRESSURE.
      HX  - HEAT INDEX.         WCI  - WIND CHILL INDEX.

*  THESE STATIONS ARE NOT NWS OR FAA STATIONS AND ARE NOT UNDER
   NWS QUALITY CONTROL.

LAZ040-048-061>063-065-066-069-221900-
SOUTHEAST LOUISIANA

CITY           SKY/WX    TMP DP  RH WIND       PRES   REMARKS
N.O. AUDUBON     N/A     76  68  77 MISG        N/A
6HR MIN TEMP:  58; 6HR MAX TEMP:  76; 6HR PCP:  0.17;

N.O. INTL ARPT PTSUNNY   72  66  81 S13       29.76F
6HR MIN TEMP:  58; 6HR MAX TEMP:  73; 6HR PCP:  0.21;

N.O. LAKEFRONT PTSUNNY   74  65  73 S12       29.77F
6HR MIN TEMP:  59; 6HR MAX TEMP:  74; 6HR PCP:  0.44;

N.O. DOWNTOWN* CLOUDY    72  64  78 S12G18    29.78F
6HR MIN TEMP:  59; 6HR MAX TEMP:  72; 6HR PCP:  0.31;

SLIDELL        CLOUDY    71  65  81 VRB6      29.77F
6HR MIN TEMP:  58; 6HR MAX TEMP:  71; 6HR PCP:  0.06;

BATON ROUGE    PTSUNNY   69  63  81 S13       29.75F
6HR MIN TEMP:  54; 6HR MAX TEMP:  69; 6HR PCP: TRACE;

BOOTHVILLE     MOSUNNY   72  67  84 SW14      29.80F
6HR MIN TEMP:  62; 6HR MAX TEMP:  73;

BELLE CHASSE   PTSUNNY   75  68  78 S18G29    29.77F
6HR MIN TEMP:  59; 6HR MAX TEMP:  75; 6HR PCP:  0.05;

BOGALUSA*        N/A     69  62  78 S6        29.79F
6HR MIN TEMP:  57; 6HR MAX TEMP:  69;

GALLIANO*      CLOUDY    76  69  76 MISG      29.78F
6HR MIN TEMP:  54; 6HR MAX TEMP:  77;

NEW ROADS*     CLOUDY    64  63  97 S6        29.75F FOG
6HR MIN TEMP:  54; 6HR MAX TEMP:  64;

GONZALES*      CLOUDY    71  68  90 S7        29.75F
6HR MIN TEMP:  57; 6HR MAX TEMP:  71;

HAMMOND*       NOT AVBL
HOUMA*         PTSUNNY   72  68  88 S14       29.77F FOG
PORT FOURCHON* PTCLDY    73  68  83 S10G18    29.82F

$$

LAZ041-044-053-054-221900-
SOUTHWEST LOUISIANA

CITY           SKY/WX    TMP DP  RH WIND       PRES   REMARKS
LAKE CHARLES   MOSUNNY   70  64  81 SW14      29.72F
6HR MIN TEMP:  54; 6HR MAX TEMP:  70;

LAFAYETTE      CLOUDY    69  65  86 S10       29.74F
6HR MIN TEMP:  53; 6HR MAX TEMP:  69;

PATTERSON      PTSUNNY   73  66  78 SW20      29.77F
6HR MIN TEMP:  55; 6HR MAX TEMP:  73;

SALT POINT       N/A     71  63  75 VRB7      29.76F
6HR MIN TEMP:  59; 6HR MAX TEMP:  74;

NEW IBERIA     PTSUNNY   73  65  75 SW12      29.75F
6HR MIN TEMP:  54; 6HR MAX TEMP:  74;

CHENAULT AIRPK NOT AVBL

$$

LAZ027-028-221900-
CENTRAL LOUISIANA

CITY           SKY/WX    TMP DP  RH WIND       PRES   REMARKS
FORT POLK      NOT AVBL
ALEXANDRIA INT CLOUDY    60  58  92 SE9       29.69F FOG
6HR MIN TEMP:  51; 6HR MAX TEMP:  60;

ALEXANDRIA     CLOUDY    58  57  97 S6        29.72F

$$

LAZ001-002-221900-
NORTHWEST LOUISIANA

CITY           SKY/WX    TMP DP  RH WIND       PRES   REMARKS
SHREVEPORT     CLOUDY    58  56  93 S9        29.64F
6HR MIN TEMP:  51; 6HR MAX TEMP:  58; 6HR PCP: TRACE;

BARKSDALE AFB  NOT AVBL
DTN SHREVEPORT CLOUDY    57  53  86 S9        29.65F
6HR MIN TEMP:  50; 6HR MAX TEMP:  57;


$$

LAZ014-016-221900-
NORTHEAST LOUISIANA

CITY           SKY/WX    TMP DP  RH WIND       PRES   REMARKS
MONROE         CLOUDY    57  56  96 S5        29.71F FOG
6HR MIN TEMP:  49; 6HR MAX TEMP:  56;

TALLULAH       CLOUDY    60  57  89 SE7       29.73F
6HR MIN TEMP:  52; 6HR MAX TEMP:  60;


$$



USA.gov is the U.S. government's official web portal to all federal, state and local government web resources and services.